Погода в Ермолаево

Россия / Республика Башкортостан     52°42′22″N   55°48′10″E
темп.,
°C
ветер,
м/с
пор.,
м/с
влажн.,
%
обл.,
%
осадки,
мм/ч
давл.,
гПа
погр.,
м
20 апреля, вт
вт2023:00+1в6113954 0.0 1029709
02:00−1в5104264 0.0 1031534
05:00−1в511420 0.0 1032630
08:00−1вюв610360 0.0 1033704
11:00+3вюв68270 0.0 10331142
14:00+7вюв67260 0.0 10321421
17:00+8вюв56270 0.0 10311534
20:00+5вюв36410 0.0 1031140
21 апреля, ср
ср2123:00+2юв355045 0.0 103285
02:00+1юв225445 0.0 103323
05:000вюв24529 0.0 103364
08:00+2юв494494 0.0 1033433
11:00+7ююв6833100 0.0 1032908
14:00+10ююв7829100 0.0 10301180
17:00+11ююв7930100 0.0 10291316
20:00+9ююв51140100 0.0 1030502
22 апреля, чт
чт2223:00+7юв51347100 0.0 1030482
02:00+6ююв61355100 0.2 1031688
05:00+5ююв61357100 0.2 1032531
08:00+5ююв61256100 0.0 1032576
11:00+7ю81149100 0.0 1032954
14:00+8ю61248100 0.1 10321250
17:00+9ю71049100 0.1 10311138
20:00+7ю6967100 0.1 1032944
23 апреля, пт
пт2323:00+5ююв41189100 2.4 1032805
02:00+5ююв51091100 0.7 1030857
05:00+5ююв5990100 1.8 1030690
08:00+6в488483 0.1 1029344
11:00+11ююв5654100 0.1 1027990
14:00+13ююв5844100 0.0 10261777
17:00+14ююв5744100 0.0 10241768
20:00+9ю6985100 0.4 1026553
24 апреля, сб
сб2423:00+7юв5986100 1.1 10251072
02:00+6юв5790100 1.4 1022924
05:00+6вюв5891100 2.5 10201026
08:00+6вюв61189100 2.4 1018632
11:00+8в71075100 2.6 1015923
14:00+10вюв61059100 0.3 10121623
17:00+12ссв4756100 0.4 1009465
20:00+9с5882100 0.3 1009320